Find OneWeb SL0298

NORAD ID: 49087 Int'l Des: 2021-075 Owner: ONEWEBN Country: UK Constellation: oneweb operational
LEOCIRCULARPOLARONEWEB_TYPE

实时位置

正在加载3D地球...

关于 OneWeb SL0298

正在加载描述...

即将过境

Passes for default location (London). Set your location on the main map for personalized predictions.

高度历史

Loading altitude history...

两行轨道根数

1 49087U 21075N 26110.48061826 -.00000050 00000-0 -16228-3 0 9997
2 49087 87.9184 17.3318 0001892 84.6955 275.4392 13.17651001226026
Epoch: Apr 20, 2026 • Age: 7 hours

当前状态

高度 1205.1 km
速度 7.25 km/s
星下点 -29.01°S, 112.92°W
发射日期 Aug 21, 2021
运行时间 4.6 years
类型 internet

技术详情

分类 Payload
质量 148.00 kg
干质量 140.00 kg
总质量 148.00 kg
长度 1.30 m
直径 1.00 m
跨度 5.00 m
形状 Trapezoid+2 pan
制造商 ONEWUS
平台类型 ARROW
阶段状态 In Orbit
所有者/国家 ONEWEBN/UK

Most Searched